Weather History for Missoula, MT

Change the Weather History Date:

Wednesday, March 14, 2012

  Actual Average Record
Temperature  
Mean Temperature 36 °F 38 °F  
Max Temperature 42 °F 49 °F 67 °F (1992)
Min Temperature 29 °F 27 °F 0 °F (1906)
Degree Days  
Heating Degree Days 29 27  
Month to date heating degree days 381 404  
Since 1 July heating degree days 5505 5773  
Cooling Degree Days 0 0  
Month to date cooling degree days 0 0  
Year to date cooling degree days 0 0  
Moisture  
Dew Point 27 °F    
Average Humidity 75    
Maximum Humidity 92    
Minimum Humidity 57    
Precipitation  
Precipitation T in 0.04 in 1.06 in (1908)
Month to date precipitation 0.10 0.42  
Year to date precipitation 2.55 1.97  
Snow  
Snow 0.20 in - - ()
Month to date snowfall 1.2  
Year to date snowfall 27.9  
Since 1 July snowfall 38.8  
Snow Depth T in    
Sea Level Pressure  
Sea Level Pressure 29.96 in    
Wind  
Wind Speed 1 mph (NW)    
Max Wind Speed 8 mph    
Max Gust Speed 9 mph    
Visibility 8 miles    
Events Rain , Snow    
T = Trace of Precipitation, MM = Missing Value Source: NWS Daily Summary

Daily Weather History Graph

Daily Weather History Graph

Search for Another Location

Airport:

Trip Planner

Search our weather history database for the weather conditions in past years. The results will help you decide how hot, cold, wet, or windy it might be!

Date:

Astronomy

Mar. 14, 2012 Rise Set
Actual Time 7:50 AM MDT 7:41 PM MDT
Civil Twilight 7:19 AM MDT 8:11 PM MDT
Nautical Twilight 6:44 AM MDT 8:47 PM MDT
Astronomical Twilight 6:08 AM MDT 9:23 PM MDT
Moon 2:46 AM MDT (3/14) 11:39 AM MDT (3/14)
Length of Visible Light 12h 51m
Length of Day
11h 51m
Waning Gibbous, 54% of the Moon is Illuminated
Mar 14
Waning Gibbous
Mar 14
Last Quarter
Mar 22
New
Mar 30
First Quarter
Apr 6
Full

Hourly Weather History & Observations

Time (MDT) Temp. Windchill Dew Point Humidity Pressure Visibility Wind Dir Wind Speed Gust Speed Precip Events Conditions
12:53 AM 32.0 °F 27.5 °F 21.9 °F 66% 29.94 in 10.0 mi North 4.6 mph - N/A   Overcast
1:53 AM 30.2 °F - 24.8 °F 80% 29.87 in 10.0 mi Calm Calm - N/A   Overcast
2:53 AM 30.9 °F 27.5 °F 23.0 °F 72% 29.95 in 10.0 mi North 3.5 mph - N/A   Overcast
3:53 AM 30.0 °F - 24.1 °F 79% 29.94 in 10.0 mi Calm Calm - N/A   Overcast
4:53 AM 30.0 °F - 25.0 °F 82% 29.94 in 10.0 mi Calm Calm - N/A   Overcast
5:53 AM 30.0 °F - 24.1 °F 79% 29.93 in 10.0 mi Calm Calm - N/A   Overcast
6:53 AM 30.9 °F - 24.1 °F 76% 29.95 in 10.0 mi Calm Calm - N/A   Overcast
7:22 AM 30.2 °F 26.7 °F 24.8 °F 80% 29.88 in 4.0 mi NNW 3.5 mph - 0.00 in Snow Light Snow
7:34 AM 30.2 °F - 24.8 °F 80% 29.88 in 2.5 mi Calm Calm - 0.00 in Snow Light Snow
7:45 AM 28.4 °F 24.6 °F 24.8 °F 86% 29.89 in 3.0 mi NNW 3.5 mph - 0.00 in Snow Light Snow
7:53 AM 28.9 °F - 25.0 °F 85% 29.97 in 4.0 mi Calm Calm - 0.00 in Snow Light Snow
8:53 AM 28.9 °F 25.2 °F 26.1 °F 89% 29.99 in 5.0 mi West 3.5 mph - 0.01 in Snow Light Snow
9:33 AM 30.2 °F - 26.6 °F 86% 29.91 in 2.5 mi Calm Calm - 0.00 in Snow Light Snow
9:35 AM 30.2 °F - 26.6 °F 86% 29.91 in 3.0 mi Calm Calm - 0.00 in Snow Light Snow
9:41 AM 30.2 °F 26.7 °F 26.6 °F 86% 29.91 in 2.5 mi NNW 3.5 mph - 0.00 in Snow Light Snow
9:53 AM 30.0 °F 26.5 °F 26.1 °F 85% 29.99 in 3.0 mi NW 3.5 mph - 0.00 in Snow Light Snow
10:53 AM 32.0 °F - 26.1 °F 79% 30.01 in 8.0 mi Calm Calm - 0.00 in   Overcast
11:53 AM 33.1 °F - 27.0 °F 78% 30.01 in 8.0 mi Calm Calm - N/A   Overcast
12:53 PM 34.0 °F - 27.0 °F 75% 30.01 in 10.0 mi Calm Calm - N/A   Mostly Cloudy
1:53 PM 36.0 °F - 28.0 °F 73% 30.00 in 10.0 mi Calm Calm - N/A   Overcast
2:53 PM 39.9 °F - 27.0 °F 60% 29.97 in 10.0 mi Calm Calm - N/A   Mostly Cloudy
3:53 PM 39.9 °F - 27.0 °F 60% 29.98 in 10.0 mi Calm Calm - N/A   Overcast
4:53 PM 41.0 °F - 28.0 °F 60% 29.97 in 10.0 mi Calm Calm - N/A   Overcast
5:53 PM 42.1 °F 39.2 °F 28.0 °F 58% 29.96 in 10.0 mi SE 4.6 mph - N/A   Scattered Clouds
6:53 PM 41.0 °F 39.0 °F 28.9 °F 62% 29.97 in 10.0 mi South 3.5 mph - N/A   Overcast
7:53 PM 39.9 °F - 30.0 °F 68% 29.98 in 10.0 mi Calm Calm - N/A   Overcast
8:53 PM 37.9 °F - 28.9 °F 70% 29.99 in 10.0 mi Calm Calm - N/A   Overcast
9:53 PM 37.9 °F - 30.0 °F 73% 30.01 in 10.0 mi Calm Calm - 0.00 in Rain Light Rain
10:53 PM 37.0 °F 34.5 °F 30.9 °F 79% 30.02 in 10.0 mi WNW 3.5 mph - 0.00 in   Overcast
11:53 PM 37.0 °F - 30.9 °F 79% 30.02 in 10.0 mi Calm Calm - N/A   Overcast